N7L KJAC-KASE

Flight info

Callsign N7L
Flight time 1h 15m
Altitude 33000
Route ALPIN5 BPI HYPPE LOYYD1
Aircraft B738/M-SDE2E3FGHIRWXY/LB1

Departure

Time 2026-04-27 22:38
Airport Jackson Hole Airport (KJAC)

Arrival

Time 2026-04-27 23:53
Airport Aspen-Pitkin County Airport (Sardy Field) (KASE)
Time Latitude Longitude Altitude Speed Heading
2026-04-27 22:09 43.60173 -110.73796 6427 ft 0 kts 188°
2026-04-27 22:31 43.60169 -110.73798 6426 ft 2 kts 198°
2026-04-27 22:31 43.60155 -110.73819 6426 ft 4 kts 244°
2026-04-27 22:31 43.60157 -110.73854 6425 ft 4 kts 295°
2026-04-27 22:32 43.60176 -110.73879 6426 ft 4 kts 333°
2026-04-27 22:32 43.60201 -110.73876 6429 ft 4 kts 17°
2026-04-27 22:32 43.60230 -110.73862 6430 ft 5 kts 20°
2026-04-27 22:32 43.60287 -110.73834 6430 ft 13 kts 19°
2026-04-27 22:33 43.60383 -110.73789 6433 ft 15 kts 19°
2026-04-27 22:33 43.60481 -110.73740 6434 ft 15 kts 20°
2026-04-27 22:33 43.60575 -110.73695 6438 ft 14 kts 19°
2026-04-27 22:33 43.60665 -110.73650 6437 ft 13 kts 20°
2026-04-27 22:34 43.60750 -110.73608 6442 ft 13 kts 20°
2026-04-27 22:34 43.60833 -110.73566 6444 ft 13 kts 20°
2026-04-27 22:34 43.60914 -110.73526 6439 ft 12 kts 20°
2026-04-27 22:34 43.60994 -110.73488 6441 ft 12 kts 19°
2026-04-27 22:35 43.61082 -110.73446 6443 ft 14 kts 20°
2026-04-27 22:35 43.61175 -110.73399 6447 ft 14 kts 20°
2026-04-27 22:35 43.61265 -110.73356 6448 ft 13 kts 19°
2026-04-27 22:35 43.61352 -110.73315 6449 ft 13 kts 20°
2026-04-27 22:36 43.61432 -110.73275 6447 ft 11 kts 20°
2026-04-27 22:36 43.61499 -110.73262 6456 ft 10 kts 336°
2026-04-27 22:36 43.61531 -110.73340 6456 ft 9 kts 289°
2026-04-27 22:36 43.61537 -110.73379 6449 ft 3 kts 263°
2026-04-27 22:37 43.61519 -110.73397 6452 ft 0 kts 199°
2026-04-27 22:37 43.61512 -110.73400 6451 ft 4 kts 199°
2026-04-27 22:37 43.61338 -110.73481 6450 ft 63 kts 199°
2026-04-27 22:37 43.60676 -110.73805 6438 ft 135 kts 199°
2026-04-27 22:38 43.59636 -110.74307 6766 ft 167 kts 201°
2026-04-27 22:38 43.58574 -110.74867 7748 ft 163 kts 211°
2026-04-27 22:38 43.57720 -110.75886 8523 ft 169 kts 232°
2026-04-27 22:38 43.57084 -110.77381 9197 ft 189 kts 241°
2026-04-27 22:39 43.56220 -110.78806 9701 ft 208 kts 219°
2026-04-27 22:39 43.54847 -110.79721 10035 ft 230 kts 204°
2026-04-27 22:39 43.53283 -110.80525 10409 ft 249 kts 204°
2026-04-27 22:39 43.51644 -110.81413 10896 ft 266 kts 205°
2026-04-27 22:40 43.49810 -110.82439 11080 ft 298 kts 205°
2026-04-27 22:40 43.47800 -110.83587 11349 ft 325 kts 205°
2026-04-27 22:40 43.45673 -110.84817 11898 ft 340 kts 205°
2026-04-27 22:40 43.43492 -110.86088 12722 ft 346 kts 205°
2026-04-27 22:41 43.41254 -110.87398 13644 ft 350 kts 205°
2026-04-27 22:41 43.39021 -110.88712 14472 ft 353 kts 205°
2026-04-27 22:41 43.36732 -110.90060 15291 ft 356 kts 205°
2026-04-27 22:41 43.34435 -110.91413 16108 ft 360 kts 205°
2026-04-27 22:42 43.32128 -110.92773 16896 ft 364 kts 205°
2026-04-27 22:42 43.29809 -110.94139 17722 ft 367 kts 205°
2026-04-27 22:42 43.27442 -110.95529 18506 ft 370 kts 204°
2026-04-27 22:42 43.24945 -110.96416 19159 ft 378 kts 187°
2026-04-27 22:43 43.22298 -110.96198 19876 ft 385 kts 171°
2026-04-27 22:43 43.19718 -110.95031 20584 ft 394 kts 157°
2026-04-27 22:43 43.17479 -110.92854 21214 ft 405 kts 140°
2026-04-27 22:43 43.15446 -110.90125 21874 ft 409 kts 138°
2026-04-27 22:44 43.13441 -110.87295 22473 ft 414 kts 137°
2026-04-27 22:44 43.11447 -110.84447 23075 ft 418 kts 138°
2026-04-27 22:44 43.09432 -110.81578 23681 ft 421 kts 138°
2026-04-27 22:44 43.07378 -110.78680 24219 ft 423 kts 138°
2026-04-27 22:45 43.05333 -110.75819 24740 ft 425 kts 138°
2026-04-27 22:45 43.03248 -110.72921 25220 ft 428 kts 139°
2026-04-27 22:45 43.01138 -110.70001 25714 ft 430 kts 139°
2026-04-27 22:45 42.99048 -110.67116 26201 ft 433 kts 138°
2026-04-27 22:46 42.96917 -110.64179 26666 ft 435 kts 138°
2026-04-27 22:46 42.94768 -110.61222 27098 ft 438 kts 138°
2026-04-27 22:46 42.92625 -110.58273 27520 ft 441 kts 138°
2026-04-27 22:46 42.90468 -110.55309 27926 ft 444 kts 138°
2026-04-27 22:47 42.88277 -110.52300 28325 ft 447 kts 138°
2026-04-27 22:47 42.86068 -110.49270 28727 ft 449 kts 138°
2026-04-27 22:47 42.83885 -110.46279 29090 ft 452 kts 138°
2026-04-27 22:47 42.81651 -110.43221 29443 ft 455 kts 138°
2026-04-27 22:48 42.79430 -110.40184 29807 ft 457 kts 138°
2026-04-27 22:48 42.77159 -110.37080 30233 ft 457 kts 138°
2026-04-27 22:48 42.74937 -110.34047 30679 ft 455 kts 138°
2026-04-27 22:48 42.72718 -110.31020 31125 ft 453 kts 138°
2026-04-27 22:49 42.70474 -110.27964 31542 ft 453 kts 138°
2026-04-27 22:49 42.68243 -110.24930 31942 ft 452 kts 138°
2026-04-27 22:49 42.66040 -110.21936 32360 ft 452 kts 138°
2026-04-27 22:49 42.63808 -110.18905 32636 ft 454 kts 138°
2026-04-27 22:50 42.61565 -110.15864 32898 ft 452 kts 138°
2026-04-27 22:50 42.56780 -110.10467 32983 ft 444 kts 158°
2026-04-27 22:51 42.50957 -110.07899 32976 ft 439 kts 166°
2026-04-27 22:51 42.45089 -110.05645 32963 ft 439 kts 166°
2026-04-27 22:52 42.39227 -110.03352 32959 ft 439 kts 166°
2026-04-27 22:52 42.33356 -110.01009 32937 ft 439 kts 166°
2026-04-27 22:53 42.27501 -109.98659 32931 ft 440 kts 165°
2026-04-27 22:53 42.21647 -109.96311 32924 ft 439 kts 165°
2026-04-27 22:54 42.15764 -109.93956 32928 ft 439 kts 166°
2026-04-27 22:54 42.09903 -109.91616 32931 ft 439 kts 166°
2026-04-27 22:55 42.04040 -109.89280 32928 ft 440 kts 166°
2026-04-27 22:55 41.98173 -109.86948 32921 ft 440 kts 166°
2026-04-27 22:56 41.92330 -109.84628 32936 ft 439 kts 166°
2026-04-27 22:56 41.86474 -109.82308 32932 ft 439 kts 166°
2026-04-27 22:57 41.80595 -109.79985 32938 ft 439 kts 166°
2026-04-27 22:57 41.74756 -109.77681 32943 ft 439 kts 166°
2026-04-27 22:58 41.68883 -109.75368 32946 ft 438 kts 166°
2026-04-27 22:58 41.63010 -109.73060 32950 ft 438 kts 166°
2026-04-27 22:59 41.57184 -109.70772 32951 ft 438 kts 166°
2026-04-27 22:59 41.51319 -109.68476 32958 ft 438 kts 166°
2026-04-27 23:00 41.42569 -109.65058 32967 ft 437 kts 166°
2026-04-27 23:00 41.36751 -109.62791 32972 ft 437 kts 165°
2026-04-27 23:01 41.30916 -109.60520 32972 ft 437 kts 165°
2026-04-27 23:01 41.25060 -109.58246 32977 ft 438 kts 165°
2026-04-27 23:02 41.19232 -109.55987 32976 ft 438 kts 165°
2026-04-27 23:02 41.13369 -109.53718 32973 ft 438 kts 165°
2026-04-27 23:03 41.07519 -109.51459 32972 ft 438 kts 165°
2026-04-27 23:03 41.01644 -109.49196 32960 ft 439 kts 165°
2026-04-27 23:04 40.95807 -109.46952 32960 ft 439 kts 165°
2026-04-27 23:04 40.89909 -109.44685 32962 ft 440 kts 166°
2026-04-27 23:05 40.84049 -109.42438 32963 ft 440 kts 166°
2026-04-27 23:05 40.78141 -109.40177 32946 ft 441 kts 166°
2026-04-27 23:06 40.72259 -109.37931 32949 ft 441 kts 166°
2026-04-27 23:06 40.66358 -109.35683 32933 ft 442 kts 166°
2026-04-27 23:07 40.60480 -109.33446 32938 ft 442 kts 166°
2026-04-27 23:07 40.54545 -109.31191 32936 ft 442 kts 166°
2026-04-27 23:08 40.48647 -109.28954 32927 ft 442 kts 166°
2026-04-27 23:08 40.42727 -109.26713 32931 ft 442 kts 167°
2026-04-27 23:09 40.36735 -109.25159 32930 ft 437 kts 179°
2026-04-27 23:09 40.30704 -109.25743 32931 ft 434 kts 190°
2026-04-27 23:10 40.24726 -109.26859 32917 ft 434 kts 190°
2026-04-27 23:10 40.18784 -109.27943 32914 ft 433 kts 190°
2026-04-27 23:11 40.12777 -109.29003 32904 ft 434 kts 190°
2026-04-27 23:11 40.06802 -109.30042 32895 ft 434 kts 190°
2026-04-27 23:12 40.01814 -109.30906 32895 ft 434 kts 190°
2026-04-27 23:12 39.94832 -109.32114 32886 ft 434 kts 190°
2026-04-27 23:13 39.89813 -109.32982 32878 ft 434 kts 190°
2026-04-27 23:13 39.83821 -109.34016 32877 ft 434 kts 191°
2026-04-27 23:14 39.77835 -109.35048 32870 ft 435 kts 191°
2026-04-27 23:14 39.71856 -109.36076 32864 ft 435 kts 191°
2026-04-27 23:15 39.65838 -109.37109 32861 ft 435 kts 191°
2026-04-27 23:15 39.59878 -109.38131 32853 ft 434 kts 191°
2026-04-27 23:16 39.53886 -109.39157 32854 ft 434 kts 191°
2026-04-27 23:16 39.47886 -109.40182 32835 ft 433 kts 191°
2026-04-27 23:17 39.41908 -109.41202 32837 ft 433 kts 191°
2026-04-27 23:17 39.35968 -109.42213 32830 ft 432 kts 191°
2026-04-27 23:18 39.30002 -109.43227 32826 ft 432 kts 191°
2026-04-27 23:18 39.24045 -109.44239 32823 ft 432 kts 192°
2026-04-27 23:19 39.18015 -109.44322 32829 ft 444 kts 170°
2026-04-27 23:19 39.15135 -109.42813 32803 ft 456 kts 154°
2026-04-27 23:19 39.12603 -109.40333 32803 ft 466 kts 139°
2026-04-27 23:20 39.10626 -109.36919 32818 ft 476 kts 123°
2026-04-27 23:20 39.09059 -109.33193 32799 ft 477 kts 122°
2026-04-27 23:20 39.06054 -109.25602 32789 ft 478 kts 121°
2026-04-27 23:21 39.02997 -109.17983 32786 ft 478 kts 122°
2026-04-27 23:21 38.99906 -109.10468 32780 ft 477 kts 122°
2026-04-27 23:22 38.96772 -109.02929 32798 ft 478 kts 123°
2026-04-27 23:22 38.93630 -108.95385 32801 ft 478 kts 123°
2026-04-27 23:23 38.90495 -108.87866 32812 ft 478 kts 122°
2026-04-27 23:23 38.87376 -108.80396 32847 ft 478 kts 123°
2026-04-27 23:24 38.84224 -108.72870 32844 ft 478 kts 123°
2026-04-27 23:24 38.81586 -108.65034 32850 ft 489 kts 103°
2026-04-27 23:25 38.81422 -108.60620 32859 ft 496 kts 86°
2026-04-27 23:25 38.82199 -108.56345 32867 ft 500 kts 70°
2026-04-27 23:25 38.84793 -108.48014 32859 ft 501 kts 69°
2026-04-27 23:26 38.87345 -108.39697 32865 ft 502 kts 70°
2026-04-27 23:26 38.89820 -108.31305 32251 ft 508 kts 70°
2026-04-27 23:27 38.91050 -108.27083 31548 ft 505 kts 70°
2026-04-27 23:27 38.92289 -108.22826 30773 ft 505 kts 70°
2026-04-27 23:27 38.93511 -108.18632 29961 ft 505 kts 70°
2026-04-27 23:27 38.94739 -108.14421 29048 ft 504 kts 70°
2026-04-27 23:28 38.95965 -108.10212 28515 ft 494 kts 70°
2026-04-27 23:28 38.97146 -108.06146 28009 ft 485 kts 71°
2026-04-27 23:28 38.98321 -108.02093 27517 ft 478 kts 71°
2026-04-27 23:28 38.99466 -107.98135 27014 ft 470 kts 71°
2026-04-27 23:29 39.00600 -107.94208 26538 ft 465 kts 71°
2026-04-27 23:29 39.01719 -107.90325 26074 ft 468 kts 71°
2026-04-27 23:29 39.02855 -107.86376 25584 ft 469 kts 71°
2026-04-27 23:29 39.03976 -107.82476 25106 ft 466 kts 71°
2026-04-27 23:30 39.05095 -107.78578 24622 ft 460 kts 71°
2026-04-27 23:30 39.06195 -107.74745 24159 ft 455 kts 71°
2026-04-27 23:30 39.07279 -107.70957 23703 ft 451 kts 71°
2026-04-27 23:30 39.08358 -107.67182 23203 ft 447 kts 71°
2026-04-27 23:31 39.09422 -107.63456 22685 ft 443 kts 71°
2026-04-27 23:31 39.10482 -107.59741 22212 ft 439 kts 71°
2026-04-27 23:31 39.11541 -107.56095 21765 ft 435 kts 70°
2026-04-27 23:31 39.12611 -107.52457 21301 ft 428 kts 70°
2026-04-27 23:32 39.13653 -107.48916 20862 ft 421 kts 71°
2026-04-27 23:32 39.14683 -107.45395 20425 ft 410 kts 71°
2026-04-27 23:32 39.15662 -107.42032 20012 ft 396 kts 72°
2026-04-27 23:32 39.16200 -107.38663 19718 ft 376 kts 92°
2026-04-27 23:33 39.16190 -107.35388 19568 ft 361 kts 95°
2026-04-27 23:33 39.16124 -107.32140 19393 ft 361 kts 96°
2026-04-27 23:33 39.16052 -107.28912 19208 ft 364 kts 96°
2026-04-27 23:33 39.15983 -107.25642 19021 ft 361 kts 95°
2026-04-27 23:34 39.15923 -107.22431 18874 ft 360 kts 95°
2026-04-27 23:34 39.15875 -107.19507 18733 ft 360 kts 95°
2026-04-27 23:34 39.15825 -107.16282 18510 ft 359 kts 95°
2026-04-27 23:34 39.15764 -107.13097 18376 ft 356 kts 95°
2026-04-27 23:35 39.15718 -107.09871 18189 ft 357 kts 95°
2026-04-27 23:35 39.15677 -107.06701 17949 ft 356 kts 95°
2026-04-27 23:35 39.15634 -107.03557 17822 ft 348 kts 94°
2026-04-27 23:35 39.15589 -107.00441 17646 ft 345 kts 95°
2026-04-27 23:36 39.15541 -106.97372 17467 ft 344 kts 95°
2026-04-27 23:36 39.15485 -106.94270 17296 ft 341 kts 95°
2026-04-27 23:36 39.15440 -106.91263 17134 ft 333 kts 95°
2026-04-27 23:36 39.15717 -106.88346 16957 ft 330 kts 73°
2026-04-27 23:37 39.16775 -106.85748 16777 ft 325 kts 51°
2026-04-27 23:37 39.18217 -106.83520 16601 ft 322 kts 49°
2026-04-27 23:37 39.19679 -106.81357 16397 ft 323 kts 48°
2026-04-27 23:37 39.21151 -106.79177 16204 ft 323 kts 49°
2026-04-27 23:38 39.22633 -106.76963 15996 ft 324 kts 49°
2026-04-27 23:38 39.24090 -106.74763 15776 ft 324 kts 49°
2026-04-27 23:38 39.25548 -106.72550 15602 ft 324 kts 49°
2026-04-27 23:38 39.27009 -106.70327 15373 ft 325 kts 49°
2026-04-27 23:39 39.28551 -106.68193 15127 ft 320 kts 35°
2026-04-27 23:39 39.30479 -106.66955 14944 ft 305 kts
2026-04-27 23:39 39.32530 -106.66730 14672 ft 292 kts 349°
2026-04-27 23:39 39.34459 -106.67344 14447 ft 278 kts 334°
2026-04-27 23:40 39.36238 -106.68236 14205 ft 276 kts 332°
2026-04-27 23:40 39.38016 -106.69160 14020 ft 268 kts 331°
2026-04-27 23:40 39.39473 -106.70440 13908 ft 247 kts 304°
2026-04-27 23:40 39.40358 -106.72298 13891 ft 238 kts 286°
2026-04-27 23:41 39.40842 -106.74295 13846 ft 234 kts 280°
2026-04-27 23:41 39.41255 -106.76375 13804 ft 238 kts 279°
2026-04-27 23:41 39.41655 -106.78399 13757 ft 232 kts 279°
2026-04-27 23:41 39.42064 -106.80426 13647 ft 230 kts 279°
2026-04-27 23:42 39.42466 -106.82393 13616 ft 227 kts 280°
2026-04-27 23:42 39.42877 -106.84380 13638 ft 228 kts 280°
2026-04-27 23:42 39.43290 -106.86365 13647 ft 231 kts 279°
2026-04-27 23:42 39.43707 -106.88376 13653 ft 230 kts 279°
2026-04-27 23:43 39.44319 -106.90289 13613 ft 240 kts 304°
2026-04-27 23:43 39.45578 -106.91727 13646 ft 243 kts 314°
2026-04-27 23:43 39.46869 -106.93119 13645 ft 242 kts 313°
2026-04-27 23:43 39.48136 -106.94546 13679 ft 235 kts 311°
2026-04-27 23:44 39.49356 -106.95970 13665 ft 240 kts 310°
2026-04-27 23:44 39.50598 -106.97443 13664 ft 245 kts 310°
2026-04-27 23:44 39.51868 -106.98954 13697 ft 245 kts 310°
2026-04-27 23:44 39.53152 -107.00375 13668 ft 249 kts 322°
2026-04-27 23:45 39.54736 -107.01098 13688 ft 260 kts 346°
2026-04-27 23:45 39.56556 -107.00920 13677 ft 270 kts 13°
2026-04-27 23:45 39.58181 -106.99716 13702 ft 274 kts 43°
2026-04-27 23:45 39.59201 -106.97668 13688 ft 272 kts 75°
2026-04-27 23:46 39.59347 -106.95277 13706 ft 262 kts 106°
2026-04-27 23:46 39.58667 -106.93175 13714 ft 250 kts 134°
2026-04-27 23:46 39.57422 -106.91695 13706 ft 241 kts 155°
2026-04-27 23:46 39.55910 -106.90868 13715 ft 233 kts 173°
2026-04-27 23:47 39.54320 -106.90578 13708 ft 232 kts 180°
2026-04-27 23:47 39.52713 -106.90406 13678 ft 226 kts 181°
2026-04-27 23:47 39.51178 -106.90248 13651 ft 215 kts 182°
2026-04-27 23:47 39.49730 -106.90094 13653 ft 205 kts 182°
2026-04-27 23:48 39.48323 -106.89944 13641 ft 201 kts 181°
2026-04-27 23:48 39.46967 -106.89796 13629 ft 190 kts 182°
2026-04-27 23:48 39.45688 -106.89654 13647 ft 181 kts 182°
2026-04-27 23:48 39.44447 -106.89519 13643 ft 181 kts 182°
2026-04-27 23:49 39.43174 -106.89386 13514 ft 183 kts 182°
2026-04-27 23:49 39.41921 -106.89257 13333 ft 181 kts 182°
2026-04-27 23:49 39.40688 -106.89223 13185 ft 178 kts 186°
2026-04-27 23:49 39.39428 -106.89163 13009 ft 180 kts 182°
2026-04-27 23:50 39.38199 -106.89039 12848 ft 179 kts 182°
2026-04-27 23:50 39.36947 -106.88894 12627 ft 177 kts 182°
2026-04-27 23:50 39.35765 -106.88752 12494 ft 168 kts 181°
2026-04-27 23:50 39.34615 -106.88614 12328 ft 161 kts 181°
2026-04-27 23:51 39.33481 -106.88482 11939 ft 166 kts 181°
2026-04-27 23:51 39.32339 -106.88344 11541 ft 164 kts 181°
2026-04-27 23:51 39.31212 -106.88211 11123 ft 162 kts 182°
2026-04-27 23:51 39.30100 -106.88078 10670 ft 160 kts 180°
2026-04-27 23:52 39.28984 -106.87947 10223 ft 163 kts 179°
2026-04-27 23:52 39.27843 -106.87824 9681 ft 168 kts 179°
2026-04-27 23:52 39.26665 -106.87854 9153 ft 170 kts 184°
2026-04-27 23:52 39.25492 -106.87904 8652 ft 166 kts 186°
2026-04-27 23:53 39.24361 -106.87846 8093 ft 163 kts 168°
2026-04-27 23:53 39.23331 -106.87370 7712 ft 150 kts 160°
2026-04-27 23:53 39.22551 -106.86995 7739 ft 68 kts 160°
2026-04-27 23:53 39.22392 -106.86920 7750 ft 7 kts 160°
2026-04-27 23:54 39.22332 -106.86892 7754 ft 11 kts 159°
2026-04-27 23:54 39.22250 -106.86852 7759 ft 14 kts 159°
2026-04-27 23:54 39.22160 -106.86808 7766 ft 14 kts 160°
2026-04-27 23:54 39.22073 -106.86768 7774 ft 13 kts 160°
2026-04-27 23:55 39.22023 -106.86713 7777 ft 10 kts 97°
2026-04-27 23:55 39.22038 -106.86650 7780 ft 7 kts 55°
2026-04-27 23:55 39.22086 -106.86653 7770 ft 9 kts 339°
2026-04-27 23:55 39.22160 -106.86690 7768 ft 12 kts 339°
2026-04-27 23:56 39.22207 -106.86713 7763 ft 7 kts 339°
2026-04-27 23:56 39.22249 -106.86731 7760 ft 3 kts 355°
2026-04-27 23:56 39.22269 -106.86711 7763 ft 4 kts 64°
2026-04-27 23:56 39.22262 -106.86679 7766 ft 4 kts 129°
2026-04-27 23:57 39.22244 -106.86655 7766 ft 4 kts 128°
2026-04-27 23:57 39.22236 -106.86624 7765 ft 4 kts 101°
2026-04-27 23:57 39.22228 -106.86594 7770 ft 3 kts 121°
2026-04-27 23:57 39.22218 -106.86587 7769 ft 0 kts 158°